FW6724 Weather Reports


time (UTC)temp
F
wind
direction
speed
knots
gust
knots
rain 1hr
in
rain 24hr
in
rain mn
in
humidity
%
barometer
mb
20260507001538 63 0 0.0 0.0 0.00 0.00 0.00 60 1012.3
20260507000038 63 0 0.0 0.0 0.00 0.00 0.00 60 1012.4
20260506234536 63 0 0.0 0.0 0.00 0.00 0.00 60 1012.4
20260506233036 63 0 0.0 0.0 0.00 0.00 0.00 60 1012.5
20260506231537 63 0 0.0 0.0 0.00 0.00 0.00 60 1012.6
20260506230039 63 0 0.0 0.0 0.00 0.00 0.00 61 1012.7
20260506224539 63 0 0.0 0.0 0.00 0.00 0.00 61 1012.7
20260506223033 63 0 0.0 0.0 0.00 0.00 0.00 61 1012.6
20260506221536 63 0 0.0 0.0 0.00 0.00 0.00 60 1012.7
20260506220040 64 0 0.0 0.0 0.00 0.00 0.00 60 1012.7
20260506214542 64 0 0.0 0.0 0.00 0.00 0.00 60 1012.9
20260506213037 64 0 0.0 3.5 0.00 0.00 0.00 60 1012.9
20260506211537 64 98 0.0 2.6 0.00 0.00 0.00 60 1013.0
20260506210039 64 0 0.0 2.6 0.00 0.00 0.00 60 1013.0
20260506204550 64 0 0.0 3.5 0.00 0.00 0.00 61 1012.9
20260506203039 64 106 0.0 3.5 0.00 0.00 0.00 61 1012.9
20260506201540 64 88 1.7 5.2 0.00 0.00 0.00 61 1012.5
20260506200037 64 94 0.9 5.2 0.00 0.00 0.00 60 1012.3
20260506194542 65 82 1.7 5.2 0.00 0.00 0.00 60 1012.1
20260506193035 65 88 1.7 6.1 0.00 0.00 0.00 59 1011.8
20260506191535 65 92 2.6 7.0 0.00 0.00 0.00 59 1011.7
20260506190054 66 46 2.6 10.4 0.00 0.00 0.00 58 1011.7
20260506184537 66 65 3.5 9.6 0.00 0.00 0.00 58 1011.5
20260506183040 66 148 6.1 11.3 0.00 0.00 0.00 56 1011.4
20260506181542 67 112 5.2 11.3 0.00 0.00 0.00 56 1011.5
20260506180039 67 111 6.1 11.3 0.00 0.00 0.00 54 1011.4
20260506174537 67 105 7.0 14.8 0.00 0.00 0.00 54 1011.3
20260506173037 68 119 6.1 13.9 0.00 0.00 0.00 53 1011.3
20260506171541 68 91 6.1 12.2 0.00 0.00 0.00 52 1011.3
20260506170038 68 67 4.3 12.2 0.00 0.00 0.00 53 1011.3
20260506164546 69 100 6.1 14.8 0.00 0.00 0.00 51 1011.2
20260506163040 69 85 7.8 16.5 0.00 0.00 0.00 49 1010.9
20260506161544 70 77 8.7 13.0 0.00 0.00 0.00 48 1010.9
20260506160043 70 161 7.0 13.9 0.00 0.00 0.00 47 1010.9
20260506154537 70 97 7.0 13.9 0.00 0.00 0.00 47 1010.8
20260506153038 70 79 8.7 13.9 0.00 0.00 0.00 48 1011.0
20260506151553 70 131 7.8 16.5 0.00 0.00 0.00 47 1011.1
20260506150036 70 92 7.8 14.8 0.00 0.00 0.00 48 1011.1
20260506144532 70 132 8.7 15.6 0.00 0.00 0.00 49 1011.0
20260506143046 71 158 7.0 17.4 0.00 0.00 0.00 49 1011.2
20260506141537 71 83 8.7 18.2 0.00 0.00 0.00 48 1011.4
20260506140039 72 95 7.8 16.5 0.00 0.00 0.00 48 1011.5
20260506134536 71 126 7.8 15.6 0.00 0.00 0.00 49 1011.4
20260506133040 72 76 7.0 13.9 0.00 0.00 0.00 47 1011.5
20260506131532 72 88 8.7 16.5 0.00 0.00 0.00 47 1011.4
20260506130037 72 113 7.0 13.9 0.00 0.00 0.00 48 1011.6
20260506124538 73 87 7.0 14.8 0.00 0.00 0.00 46 1011.7
20260506123038 72 96 7.8 14.8 0.00 0.00 0.00 46 1011.5
20260506121536 73 63 7.0 15.6 0.00 0.00 0.00 44 1011.7
20260506120040 73 74 7.8 13.0 0.00 0.00 0.00 44 1011.8
20260506114542 73 49 6.1 13.0 0.00 0.00 0.00 44 1011.9
20260506113037 72 101 8.7 16.5 0.00 0.00 0.00 45 1011.9
20260506111539 72 134 8.7 16.5 0.00 0.00 0.00 46 1011.9
20260506110041 73 60 8.7 14.8 0.00 0.00 0.00 43 1012.0
20260506104533 72 107 5.2 13.9 0.00 0.00 0.00 42 1012.1
20260506103034 73 86 5.2 12.2 0.00 0.00 0.00 41 1012.1
20260506101550 73 69 4.3 11.3 0.00 0.00 0.00 41 1012.2
20260506100038 72 144 4.3 10.4 0.00 0.00 0.00 42 1012.3
20260506094545 71 59 5.2 11.3 0.00 0.00 0.00 43 1012.3
20260506093033 71 98 2.6 8.7 0.00 0.00 0.00 46 1012.2
20260506091533 71 101 3.5 10.4 0.00 0.00 0.00 46 1012.2
20260506090036 69 90 3.5 9.6 0.00 0.00 0.00 49 1012.0
20260506084537 67 0 0.9 4.3 0.00 0.00 0.00 54 1011.9
20260506083040 67 67 0.9 3.5 0.00 0.00 0.00 55 1012.1
20260506081538 67 0 0.0 2.6 0.00 0.00 0.00 56 1012.1
20260506073037 66 0 0.0 2.6 0.00 0.00 0.00 56 1011.9
20260506071550 65 0 0.0 0.0 0.00 0.00 0.00 54 1012.0
20260506061537 60 0 0.0 2.6 0.00 0.00 0.00 58 1012.0
20260506044537 57 296 0.9 3.5 0.00 0.00 0.00 60 1011.2
20260506043036 58 0 0.0 0.0 0.00 0.00 0.00 61 1010.9
20260506041545 57 0 0.0 2.6 0.00 0.00 0.00 61 1011.0
20260506040033 57 121 1.7 5.2 0.00 0.00 0.00 61 1010.9
20260506034537 58 96 0.9 2.6 0.00 0.00 0.00 60 1010.8
20260506033037 59 98 1.7 5.2 0.00 0.00 0.00 58 1010.9
20260506031534 59 293 1.7 4.3 0.00 0.00 0.00 57 1010.8
20260506030035 59 273 2.6 6.1 0.00 0.00 0.00 58 1010.6
20260506024537 60 0 0.0 0.9 0.00 0.00 0.00 60 1010.6
20260506023037 60 0 0.0 2.6 0.00 0.00 0.00 60 1010.6
20260506021536 60 289 1.7 6.1 0.00 0.00 0.00 61 1010.6
20260506020033 60 267 3.5 7.0 0.00 0.00 0.00 61 1010.8
20260506014546 61 294 1.7 6.1 0.00 0.00 0.00 61 1010.8
20260506013034 62 294 0.9 6.1 0.00 0.00 0.00 61 1010.9
20260506011539 63 0 1.7 4.3 0.00 0.00 0.00 61 1010.8
20260506010034 63 0 0.0 0.9 0.00 0.00 0.00 61 1010.9
20260506004541 63 0 0.9 1.7 0.00 0.00 0.00 61 1011.0
20260506003038 64 297 0.9 2.6 0.00 0.00 0.00 60 1011.0